Tracking 28091 objects as of 30-Sep-2023
HD Live streaming from Space Station
objects crossing your sky now

THOR ABLESTAR DEB *

Track THOR ABLESTAR DEB * now!
10-day predictions


NORAD ID: 21970
Int'l Code: 1961-015ML
Perigee: 382.0 km
Apogee: 619.0 km
Inclination: 66.0 °
Period: 94.5 minutes
Semi major axis: 6871 km
RCS: 0.0158 m2 (small)
Launch date: June 29, 1961
Source: United States (US)
Launch site: AIR FORCE EASTERN TEST RANGE (AFETR)

Note: This is SATELLITE DEBRIS
Your satellite tracking list
Your tracking list is empty




NASA's NSSDC Master Catalog

Two Line Element Set (TLE):
1 21970U 61015ML  23272.24373310  .00044926  00000-0  12001-2 0  9992
2 21970  65.9763 215.1372 0172402 318.6936  40.1264 15.24142638695856
Source of the keplerian elements: AFSPC